CZ-3C R/B, 44232

Orbit data source: Space-Track

CZ-3C R/B, 44232 is space debris in HEO originally from a launch on Fri, 17 May 2019 UTC launched from the Xichang Space Center, China (XSC). Debris objects in space refer to the collection of defunct objects orbiting the Earth. Examples of debris include non-operational satellites, rocket bodies, and fragments generated from explosions, collisions, or faulty payload assembly.

Loading next visibility...
Identifier
44232, 2019-027B
Orbit
HEO
Country
Flag of CNCN / PRC
Related business
Manufacturer
CALT
Mission
Spacecraft
Bus & Motor
CZ-3C STAGE 3, Unknown motor
Mass
~2,800 kg wet, ~2,800 kg dry
Launch date (UTC)
2019-05-17 (7 years ago)
Launch vehicle
Unknown
Launch site
Xichang Space Center, China (XSC)
Object type
Payload
Rocket body
Debris
Shape & HBR
Cyl + 1 Nozzle, 6.2 m
Radar Cross Section
32.704 m², Large (>1 m²)

Expand to show TLE details & history
Last TLE update: 20 hours ago

TLE from 20 hours ago
0 CZ-3C R/B
1 44232U 19027B   25348.55907119  .00024958  00000-0  16267-2 0  9995
2 44232  19.5428 339.9403 6372743 227.6006  57.3495  3.54136830 66415
Epoch: 2025-12-14T13:25Z
TLE epoch observation values (Epoch: 2025-12-14T13:25:03.750Z)
Latitude
-0.00018°
Longitude
55.19334°
Altitude
12,541.844 km
Speed
4.496 km/s
True Right ascension
22h 39m 43s
True Declination
0° 00' 01"
Sunlit
Object was in daylight at epoch
Visualization orbit readout
Latitude
Unknown
Longitude
Unknown
Altitude
Unknown
Speed
Unknown
Apparent Right ascension
Unknown
Apparent Declination
Unknown
Sunlit
N/A
Visualization observer readout
Local Sidereal Time
08:01:52
Azimuth
Unknown
Elevation
Unknown
Doppler factor
Unknown
Orbital elements
Apogee altitude
23,396.607 km
Perigee altitude
218.232 km
Semi-major axis
18,185.556 km
Eccentricity
0.63727
Inclination
19.5428°
RAAN
339.9403°
Arg. of periapsis
227.6006°
True anomaly
132.44459°
Mean anomaly
57.3495°
Eccentric anomaly
93.78307°
Mean motion
0.88502 °/min
Orbital period
406.77 mins
BSTAR
0.0016267
Loading maneuver chart data...
Computing Atmospheric mass density...
Loading historical data...
Loading historical data...
Loading historical data...
Loading historical data...
Loading historical data...
Loading historical data...
Loading historical data...
Other satellites on launch #27 in the year 2019 (2019-05-17 UTC)

Documentation

Showing up to 5 results
|